Regional Weather Roundup
Issued by NWS

Home | Current Version | Previous Version | Graphics & Text | Print | Product List | Glossary On
Versions: 1 2 3 4 5 6 7 8 9 10 11 12 13 14 15 16 17 18 19 20 21 22 23 24 25 26 27 28 29 30 31 32 33 34 35 36 37 38 39 40 41 42 43 44 45 46 47 48 49 50
000
ASUS43 KBIS 220559
RWRND

NORTH DAKOTA REGIONAL WEATHER ROUNDUP
NATIONAL WEATHER SERVICE BISMARCK ND
100 AM CDT WED OCT 22 2014

NOTE: "FAIR" INDICATES FEW OR NO CLOUDS BELOW 12,000 FEET WITH NO
SIGNIFICANT WEATHER AND/OR OBSTRUCTIONS TO VISIBILITY.


NDZ001>003-009>011-017-220700-
NORTHWEST NORTH DAKOTA

CITY           SKY/WX    TMP DP  RH WIND       PRES   REMARKS
WILLISTON      MOCLDY    54  43  66 CALM      29.63R
6HR MIN TEMP:  42; 6HR MAX TEMP:  70;

MINOT          CLEAR     65  42  43 S16G28    29.58R
$$

NDZ018>021-031>035-040>046-220700-
SOUTHWEST NORTH DAKOTA

CITY           SKY/WX    TMP DP  RH WIND       PRES   REMARKS
BISMARCK       CLEAR     65  42  43 S20G28    29.66S
6HR MIN TEMP:  64; 6HR MAX TEMP:  76;

GARRISON         N/A     61  48  62 S7        29.63R
6HR MIN TEMP:  61; 6HR MAX TEMP:  69;

HETTINGER ARPT MOCLDY    59  42  53 W8        29.73R
$$

NDZ004>008-012>016-024-026-027-054-220700-
NORTHEAST NORTH DAKOTA

CITY           SKY/WX    TMP DP  RH WIND       PRES   REMARKS
GRAND FORKS    CLEAR     55  41  59 S17G29    29.85S
DEVILS LAKE    PTCLDY    61  43  51 S21G29    29.71F
$$

NDZ022-023-025-028>030-036>039-047>053-220700-
SOUTHEAST NORTH DAKOTA

CITY           SKY/WX    TMP DP  RH WIND       PRES   REMARKS
FARGO          CLEAR     56  41  57 SE22G33   29.90F
6HR MIN TEMP:  56; 6HR MAX TEMP:  61;

$$




USA.gov is the U.S. government's official web portal to all federal, state and local government web resources and services.